FDY807 KIPL-KLAX

Flight info

Callsign FDY807
Flight time 1h 2m
Altitude 8000
Route IPL V458 OCN V23 SLI
Aircraft C208/L-SDFGR/C

Departure

Time 2026-05-09 02:44
Airport Imperial County Airport (KIPL)

Arrival

Time 2026-05-09 03:46
Airport Los Angeles International Airport (KLAX)
Time Latitude Longitude Altitude Speed Heading
2026-05-09 02:33 32.83399 -115.57261 -46 ft 0 kts 306°
2026-05-09 02:37 32.83400 -115.57262 -46 ft 2 kts 305°
2026-05-09 02:37 32.83402 -115.57265 -46 ft 0 kts 304°
2026-05-09 02:38 32.83402 -115.57266 -46 ft 1 kts 304°
2026-05-09 02:39 32.83402 -115.57267 -46 ft 1 kts 305°
2026-05-09 02:39 32.83414 -115.57294 -48 ft 6 kts 274°
2026-05-09 02:39 32.83361 -115.57285 -55 ft 12 kts 153°
2026-05-09 02:39 32.83306 -115.57252 -50 ft 8 kts 152°
2026-05-09 02:40 32.83218 -115.57198 -46 ft 19 kts 154°
2026-05-09 02:40 32.83107 -115.57130 -46 ft 18 kts 153°
2026-05-09 02:40 32.83029 -115.57103 -45 ft 6 kts 224°
2026-05-09 02:40 32.83009 -115.57149 -45 ft 10 kts 257°
2026-05-09 02:41 32.83018 -115.57178 -45 ft 0 kts 330°
2026-05-09 02:41 32.83019 -115.57178 -45 ft 0 kts 333°
2026-05-09 02:43 32.83023 -115.57181 -56 ft 7 kts 333°
2026-05-09 02:43 32.83230 -115.57307 -46 ft 60 kts 333°
2026-05-09 02:43 32.83705 -115.57597 72 ft 84 kts 324°
2026-05-09 02:43 32.84243 -115.57922 305 ft 95 kts 332°
2026-05-09 02:44 32.84907 -115.57834 636 ft 106 kts 27°
2026-05-09 02:44 32.85355 -115.57074 852 ft 122 kts 75°
2026-05-09 02:44 32.85258 -115.56070 1132 ft 129 kts 124°
2026-05-09 02:44 32.84524 -115.55487 1399 ft 127 kts 174°
2026-05-09 02:45 32.83683 -115.55581 1755 ft 119 kts 207°
2026-05-09 02:45 32.83025 -115.56172 2040 ft 120 kts 231°
2026-05-09 02:45 32.82665 -115.57050 2322 ft 119 kts 249°
2026-05-09 02:45 32.82315 -115.57941 2608 ft 122 kts 243°
2026-05-09 02:46 32.81849 -115.58770 2942 ft 120 kts 230°
2026-05-09 02:46 32.81254 -115.59506 3206 ft 126 kts 226°
2026-05-09 02:46 32.80623 -115.60263 3403 ft 134 kts 226°
2026-05-09 02:46 32.80154 -115.61228 3593 ft 139 kts 256°
2026-05-09 02:47 32.80025 -115.62385 3810 ft 143 kts 265°
2026-05-09 02:47 32.79955 -115.63576 3995 ft 145 kts 264°
2026-05-09 02:47 32.79876 -115.64776 4190 ft 145 kts 264°
2026-05-09 02:47 32.79786 -115.65968 4365 ft 145 kts 264°
2026-05-09 02:48 32.79686 -115.67163 4558 ft 145 kts 264°
2026-05-09 02:48 32.79580 -115.68357 4750 ft 146 kts 263°
2026-05-09 02:48 32.79472 -115.69558 4936 ft 146 kts 264°
2026-05-09 02:48 32.79362 -115.70759 5128 ft 146 kts 263°
2026-05-09 02:49 32.79254 -115.71955 5322 ft 145 kts 263°
2026-05-09 02:49 32.79144 -115.73150 5525 ft 146 kts 263°
2026-05-09 02:49 32.79034 -115.74349 5720 ft 146 kts 263°
2026-05-09 02:49 32.78924 -115.75547 5914 ft 146 kts 263°
2026-05-09 02:50 32.78813 -115.76745 6108 ft 146 kts 262°
2026-05-09 02:50 32.78702 -115.77951 6294 ft 148 kts 262°
2026-05-09 02:50 32.78591 -115.79168 6479 ft 148 kts 262°
2026-05-09 02:50 32.78479 -115.80386 6664 ft 148 kts 262°
2026-05-09 02:51 32.78368 -115.81591 6851 ft 149 kts 262°
2026-05-09 02:51 32.78254 -115.82817 7041 ft 150 kts 263°
2026-05-09 02:51 32.78139 -115.84056 7233 ft 151 kts 263°
2026-05-09 02:51 32.78025 -115.85300 7424 ft 151 kts 263°
2026-05-09 02:52 32.77909 -115.86546 7615 ft 152 kts 263°
2026-05-09 02:52 32.77793 -115.87799 7806 ft 153 kts 263°
2026-05-09 02:52 32.77675 -115.89057 8007 ft 154 kts 263°
2026-05-09 02:52 32.77555 -115.90364 8036 ft 164 kts 264°
2026-05-09 02:53 32.77429 -115.91737 8053 ft 171 kts 264°
2026-05-09 02:53 32.77297 -115.93160 8060 ft 175 kts 263°
2026-05-09 02:53 32.77161 -115.94610 8063 ft 178 kts 263°
2026-05-09 02:53 32.77023 -115.96074 8061 ft 178 kts 263°
2026-05-09 02:54 32.76885 -115.97536 8065 ft 177 kts 264°
2026-05-09 02:54 32.76748 -115.98987 8070 ft 176 kts 264°
2026-05-09 02:54 32.76613 -116.00441 8074 ft 177 kts 264°
2026-05-09 02:54 32.76476 -116.01899 8104 ft 178 kts 263°
2026-05-09 02:55 32.76337 -116.03364 8111 ft 179 kts 264°
2026-05-09 02:55 32.76223 -116.04834 8114 ft 178 kts 271°
2026-05-09 02:55 32.76642 -116.06174 8115 ft 179 kts 304°
2026-05-09 02:55 32.77447 -116.07309 8124 ft 180 kts 310°
2026-05-09 02:56 32.78276 -116.08433 8125 ft 181 kts 309°
2026-05-09 02:56 32.79105 -116.09565 8103 ft 181 kts 309°
2026-05-09 02:56 32.79929 -116.10701 8100 ft 182 kts 309°
2026-05-09 02:56 32.80749 -116.11843 8101 ft 182 kts 308°
2026-05-09 02:57 32.81566 -116.12985 8105 ft 181 kts 308°
2026-05-09 02:57 32.82383 -116.14122 8133 ft 181 kts 309°
2026-05-09 02:57 32.83203 -116.15257 8136 ft 181 kts 309°
2026-05-09 02:57 32.84016 -116.16400 8133 ft 181 kts 309°
2026-05-09 02:58 32.84829 -116.17544 8136 ft 181 kts 309°
2026-05-09 02:58 32.85635 -116.18689 8140 ft 181 kts 308°
2026-05-09 02:58 32.86439 -116.19836 8116 ft 180 kts 308°
2026-05-09 02:58 32.87243 -116.20988 8115 ft 181 kts 309°
2026-05-09 02:59 32.88057 -116.22143 8116 ft 182 kts 309°
2026-05-09 02:59 32.88877 -116.23295 8116 ft 183 kts 309°
2026-05-09 02:59 32.89701 -116.24450 8118 ft 184 kts 309°
2026-05-09 02:59 32.90527 -116.25608 8118 ft 184 kts 309°
2026-05-09 03:00 32.91341 -116.26762 8151 ft 180 kts 308°
2026-05-09 03:00 32.92138 -116.27893 8145 ft 176 kts 309°
2026-05-09 03:00 32.92932 -116.28999 8157 ft 176 kts 309°
2026-05-09 03:00 32.93715 -116.30115 8148 ft 174 kts 309°
2026-05-09 03:01 32.94503 -116.31214 8128 ft 174 kts 309°
2026-05-09 03:01 32.95294 -116.32313 8138 ft 175 kts 310°
2026-05-09 03:01 32.96086 -116.33417 8144 ft 176 kts 309°
2026-05-09 03:01 32.96877 -116.34529 8141 ft 176 kts 309°
2026-05-09 03:02 32.97665 -116.35640 8132 ft 176 kts 309°
2026-05-09 03:02 32.98451 -116.36752 8126 ft 174 kts 309°
2026-05-09 03:02 32.99235 -116.37857 8135 ft 176 kts 309°
2026-05-09 03:02 33.00032 -116.38966 8173 ft 176 kts 309°
2026-05-09 03:03 33.00821 -116.40068 8170 ft 175 kts 309°
2026-05-09 03:03 33.01602 -116.41175 8160 ft 174 kts 308°
2026-05-09 03:03 33.02375 -116.42274 8161 ft 175 kts 309°
2026-05-09 03:03 33.03160 -116.43376 8155 ft 175 kts 309°
2026-05-09 03:04 33.03944 -116.44483 8152 ft 175 kts 308°
2026-05-09 03:04 33.04730 -116.45600 8155 ft 176 kts 309°
2026-05-09 03:04 33.05519 -116.46717 8160 ft 176 kts 309°
2026-05-09 03:04 33.06307 -116.47835 8156 ft 176 kts 308°
2026-05-09 03:05 33.07094 -116.48949 8167 ft 176 kts 309°
2026-05-09 03:05 33.07889 -116.50073 8159 ft 178 kts 309°
2026-05-09 03:05 33.08687 -116.51191 8168 ft 177 kts 309°
2026-05-09 03:05 33.09486 -116.52317 8165 ft 178 kts 308°
2026-05-09 03:06 33.10283 -116.53445 8167 ft 177 kts 309°
2026-05-09 03:06 33.11079 -116.54568 8172 ft 178 kts 308°
2026-05-09 03:06 33.11875 -116.55695 8164 ft 176 kts 309°
2026-05-09 03:06 33.12658 -116.56808 8158 ft 175 kts 309°
2026-05-09 03:07 33.13440 -116.57929 8168 ft 176 kts 307°
2026-05-09 03:07 33.14019 -116.59208 8173 ft 176 kts 287°
2026-05-09 03:07 33.14251 -116.60645 8170 ft 177 kts 279°
2026-05-09 03:07 33.14426 -116.62086 8173 ft 178 kts 278°
2026-05-09 03:08 33.14595 -116.63553 8193 ft 178 kts 278°
2026-05-09 03:08 33.14765 -116.65020 8196 ft 179 kts 278°
2026-05-09 03:08 33.14936 -116.66488 8192 ft 179 kts 278°
2026-05-09 03:08 33.15112 -116.67962 8185 ft 179 kts 278°
2026-05-09 03:09 33.15287 -116.69426 8186 ft 178 kts 278°
2026-05-09 03:09 33.15464 -116.70884 8194 ft 178 kts 279°
2026-05-09 03:09 33.15645 -116.72348 8196 ft 178 kts 279°
2026-05-09 03:09 33.15823 -116.73807 8193 ft 178 kts 279°
2026-05-09 03:10 33.16002 -116.75265 8197 ft 178 kts 278°
2026-05-09 03:10 33.16180 -116.76722 8196 ft 178 kts 278°
2026-05-09 03:10 33.16359 -116.78180 8199 ft 177 kts 279°
2026-05-09 03:10 33.16540 -116.79633 8185 ft 176 kts 279°
2026-05-09 03:11 33.16720 -116.81073 8192 ft 174 kts 278°
2026-05-09 03:11 33.16893 -116.82509 8215 ft 176 kts 278°
2026-05-09 03:11 33.17064 -116.83944 8206 ft 177 kts 278°
2026-05-09 03:11 33.17243 -116.85399 8209 ft 177 kts 278°
2026-05-09 03:12 33.17420 -116.86853 8198 ft 176 kts 278°
2026-05-09 03:12 33.17602 -116.88301 8206 ft 177 kts 279°
2026-05-09 03:12 33.17781 -116.89756 8211 ft 178 kts 278°
2026-05-09 03:12 33.17954 -116.91220 8206 ft 178 kts 278°
2026-05-09 03:13 33.18304 -116.94158 8196 ft 179 kts 278°
2026-05-09 03:13 33.18480 -116.95627 8197 ft 179 kts 278°
2026-05-09 03:13 33.18656 -116.97096 8197 ft 179 kts 278°
2026-05-09 03:14 33.18831 -116.98566 8196 ft 179 kts 278°
2026-05-09 03:14 33.19009 -117.00037 8210 ft 179 kts 278°
2026-05-09 03:14 33.19187 -117.01511 8210 ft 179 kts 278°
2026-05-09 03:14 33.19306 -117.02485 8207 ft 179 kts 278°
2026-05-09 03:15 33.19540 -117.04437 8206 ft 178 kts 278°
2026-05-09 03:15 33.19715 -117.05901 8207 ft 178 kts 278°
2026-05-09 03:15 33.19890 -117.07362 8213 ft 178 kts 278°
2026-05-09 03:15 33.20065 -117.08829 8216 ft 179 kts 278°
2026-05-09 03:16 33.20183 -117.09818 8211 ft 179 kts 278°
2026-05-09 03:16 33.20359 -117.11288 8220 ft 179 kts 278°
2026-05-09 03:16 33.20532 -117.12740 8221 ft 179 kts 278°
2026-05-09 03:16 33.20708 -117.14211 8221 ft 179 kts 278°
2026-05-09 03:17 33.20884 -117.15682 8216 ft 179 kts 278°
2026-05-09 03:17 33.21059 -117.17152 8219 ft 179 kts 278°
2026-05-09 03:17 33.21233 -117.18621 8213 ft 179 kts 278°
2026-05-09 03:17 33.21408 -117.20092 8231 ft 179 kts 278°
2026-05-09 03:18 33.21583 -117.21568 8235 ft 180 kts 278°
2026-05-09 03:18 33.21758 -117.23047 8233 ft 180 kts 278°
2026-05-09 03:18 33.21933 -117.24526 8233 ft 180 kts 278°
2026-05-09 03:18 33.22108 -117.26004 8232 ft 180 kts 278°
2026-05-09 03:19 33.22283 -117.27483 8233 ft 180 kts 278°
2026-05-09 03:19 33.22457 -117.28962 8229 ft 180 kts 278°
2026-05-09 03:19 33.22632 -117.30441 8230 ft 180 kts 278°
2026-05-09 03:19 33.22805 -117.31918 8231 ft 180 kts 278°
2026-05-09 03:20 33.22979 -117.33397 8233 ft 180 kts 278°
2026-05-09 03:20 33.23150 -117.34855 8230 ft 180 kts 278°
2026-05-09 03:20 33.23324 -117.36332 8231 ft 180 kts 278°
2026-05-09 03:20 33.23498 -117.37812 8234 ft 180 kts 278°
2026-05-09 03:21 33.23671 -117.39291 8232 ft 180 kts 278°
2026-05-09 03:21 33.23845 -117.40772 8231 ft 180 kts 278°
2026-05-09 03:21 33.24274 -117.42155 8227 ft 180 kts 306°
2026-05-09 03:21 33.25157 -117.43215 8233 ft 180 kts 315°
2026-05-09 03:22 33.26058 -117.44255 8246 ft 180 kts 314°
2026-05-09 03:22 33.26956 -117.45304 8244 ft 180 kts 314°
2026-05-09 03:22 33.27853 -117.46352 8240 ft 180 kts 314°
2026-05-09 03:22 33.28750 -117.47401 8242 ft 180 kts 314°
2026-05-09 03:23 33.29637 -117.48437 8239 ft 181 kts 314°
2026-05-09 03:23 33.30537 -117.49486 8235 ft 181 kts 314°
2026-05-09 03:23 33.31436 -117.50534 8240 ft 181 kts 314°
2026-05-09 03:23 33.32336 -117.51583 8235 ft 181 kts 314°
2026-05-09 03:24 33.33236 -117.52633 8239 ft 181 kts 314°
2026-05-09 03:24 33.34137 -117.53685 8238 ft 181 kts 314°
2026-05-09 03:24 33.35038 -117.54734 8237 ft 181 kts 314°
2026-05-09 03:24 33.35938 -117.55785 8236 ft 181 kts 314°
2026-05-09 03:25 33.36836 -117.56834 8230 ft 181 kts 314°
2026-05-09 03:25 33.37735 -117.57884 8233 ft 180 kts 314°
2026-05-09 03:25 33.38632 -117.58932 8230 ft 181 kts 314°
2026-05-09 03:25 33.39531 -117.59983 8234 ft 180 kts 314°
2026-05-09 03:26 33.40430 -117.61035 8232 ft 181 kts 314°
2026-05-09 03:26 33.41328 -117.62083 8227 ft 181 kts 314°
2026-05-09 03:26 33.42228 -117.63137 8227 ft 181 kts 314°
2026-05-09 03:26 33.43126 -117.64188 8226 ft 181 kts 314°
2026-05-09 03:27 33.44025 -117.65241 8220 ft 181 kts 314°
2026-05-09 03:27 33.44922 -117.66291 8224 ft 181 kts 314°
2026-05-09 03:27 33.45820 -117.67343 8224 ft 181 kts 314°
2026-05-09 03:27 33.46721 -117.68398 8222 ft 181 kts 314°
2026-05-09 03:28 33.47621 -117.69451 8227 ft 181 kts 314°
2026-05-09 03:28 33.48522 -117.70509 8226 ft 182 kts 314°
2026-05-09 03:28 33.49414 -117.71556 8224 ft 182 kts 314°
2026-05-09 03:28 33.50318 -117.72617 8224 ft 182 kts 314°
2026-05-09 03:29 33.51221 -117.73678 8228 ft 182 kts 314°
2026-05-09 03:29 33.52136 -117.74754 8222 ft 182 kts 314°
2026-05-09 03:29 33.53028 -117.75803 8225 ft 182 kts 314°
2026-05-09 03:29 33.53932 -117.76866 8229 ft 182 kts 314°
2026-05-09 03:30 33.54834 -117.77929 8231 ft 182 kts 314°
2026-05-09 03:30 33.55738 -117.78991 8227 ft 182 kts 314°
2026-05-09 03:30 33.56642 -117.80052 8229 ft 182 kts 314°
2026-05-09 03:30 33.57544 -117.81113 8232 ft 182 kts 314°
2026-05-09 03:31 33.58449 -117.82177 8230 ft 182 kts 314°
2026-05-09 03:31 33.59352 -117.83240 8232 ft 182 kts 314°
2026-05-09 03:31 33.60255 -117.84304 8234 ft 182 kts 314°
2026-05-09 03:31 33.61159 -117.85368 8235 ft 182 kts 314°
2026-05-09 03:32 33.62063 -117.86433 8233 ft 182 kts 314°
2026-05-09 03:32 33.62968 -117.87498 8232 ft 182 kts 314°
2026-05-09 03:32 33.63871 -117.88563 8233 ft 182 kts 314°
2026-05-09 03:32 33.64775 -117.89629 8233 ft 182 kts 314°
2026-05-09 03:33 33.65681 -117.90688 8231 ft 182 kts 314°
2026-05-09 03:33 33.66595 -117.91741 8233 ft 182 kts 314°
2026-05-09 03:33 33.67496 -117.92785 8233 ft 182 kts 314°
2026-05-09 03:33 33.68403 -117.93846 8233 ft 182 kts 314°
2026-05-09 03:34 33.69308 -117.94909 8231 ft 182 kts 314°
2026-05-09 03:34 33.70211 -117.95975 8231 ft 182 kts 314°
2026-05-09 03:34 33.71112 -117.97038 8231 ft 182 kts 314°
2026-05-09 03:34 33.72013 -117.98102 8230 ft 181 kts 314°
2026-05-09 03:35 33.72895 -117.99144 8228 ft 182 kts 314°
2026-05-09 03:35 33.73797 -118.00211 8228 ft 182 kts 314°
2026-05-09 03:35 33.74699 -118.01277 8227 ft 182 kts 314°
2026-05-09 03:35 33.75603 -118.02351 8122 ft 184 kts 314°
2026-05-09 03:36 33.76514 -118.03433 7978 ft 188 kts 313°
2026-05-09 03:36 33.77465 -118.04572 7643 ft 197 kts 313°
2026-05-09 03:36 33.78371 -118.05819 7312 ft 199 kts 303°
2026-05-09 03:36 33.79061 -118.07238 7138 ft 193 kts 297°
2026-05-09 03:37 33.79686 -118.08650 6975 ft 190 kts 297°
2026-05-09 03:37 33.80454 -118.09928 6810 ft 189 kts 316°
2026-05-09 03:37 33.81644 -118.10581 6643 ft 192 kts 348°
2026-05-09 03:37 33.82976 -118.10664 6486 ft 192 kts 358°
2026-05-09 03:38 33.84312 -118.10649 6327 ft 192 kts 358°
2026-05-09 03:38 33.85641 -118.10658 6155 ft 191 kts 356°
2026-05-09 03:38 33.86972 -118.10693 5984 ft 191 kts 356°
2026-05-09 03:38 33.88300 -118.10742 5816 ft 190 kts 354°
2026-05-09 03:39 33.89624 -118.10750 5675 ft 190 kts 359°
2026-05-09 03:39 33.90922 -118.10961 5498 ft 185 kts 334°
2026-05-09 03:39 33.92022 -118.11708 5333 ft 182 kts 330°
2026-05-09 03:39 33.93159 -118.12380 5168 ft 182 kts 333°
2026-05-09 03:40 33.94300 -118.13002 5011 ft 182 kts 334°
2026-05-09 03:40 33.95370 -118.13796 4773 ft 182 kts 313°
2026-05-09 03:40 33.95917 -118.15140 4444 ft 181 kts 279°
2026-05-09 03:40 33.95845 -118.16652 4123 ft 182 kts 263°
2026-05-09 03:41 33.95707 -118.18172 3817 ft 181 kts 266°
2026-05-09 03:41 33.95629 -118.19634 3514 ft 179 kts 265°
2026-05-09 03:41 33.95497 -118.21125 3202 ft 179 kts 262°
2026-05-09 03:41 33.95345 -118.22542 2881 ft 163 kts 262°
2026-05-09 03:42 33.95205 -118.23859 2555 ft 155 kts 262°
2026-05-09 03:42 33.95074 -118.25128 2225 ft 152 kts 262°
2026-05-09 03:42 33.94950 -118.26358 1899 ft 142 kts 263°
2026-05-09 03:42 33.94840 -118.27495 1574 ft 139 kts 262°
2026-05-09 03:43 33.94715 -118.28715 1503 ft 152 kts 261°
2026-05-09 03:43 33.94565 -118.29983 1435 ft 152 kts 262°
2026-05-09 03:43 33.94437 -118.31206 1372 ft 142 kts 262°
2026-05-09 03:43 33.94345 -118.32355 1246 ft 127 kts 263°
2026-05-09 03:44 33.94237 -118.33371 1040 ft 121 kts 259°
2026-05-09 03:44 33.94134 -118.34334 829 ft 109 kts 263°
2026-05-09 03:44 33.94056 -118.35177 682 ft 90 kts 262°
2026-05-09 03:44 33.93990 -118.35807 550 ft 70 kts 260°
2026-05-09 03:45 33.93923 -118.36423 440 ft 75 kts 264°
2026-05-09 03:45 33.93848 -118.37046 351 ft 77 kts 262°
2026-05-09 03:45 33.93794 -118.37670 248 ft 72 kts 263°
2026-05-09 03:45 33.93737 -118.38242 137 ft 69 kts 263°
2026-05-09 03:46 33.93683 -118.38782 98 ft 58 kts 264°
2026-05-09 03:46 33.93643 -118.39189 91 ft 36 kts 263°
2026-05-09 03:46 33.93656 -118.39295 93 ft 6 kts 68°
2026-05-09 03:46 33.93707 -118.39164 91 ft 19 kts 58°
2026-05-09 03:47 33.93737 -118.39115 91 ft 0 kts 53°
2026-05-09 03:47 33.93754 -118.39151 92 ft 21 kts 270°
2026-05-09 03:47 33.93775 -118.39302 94 ft 17 kts 295°
2026-05-09 03:47 33.93927 -118.39388 94 ft 21 kts 313°
2026-05-09 03:48 33.93917 -118.39614 94 ft 27 kts 263°
2026-05-09 03:48 33.93965 -118.39795 94 ft 17 kts 36°
2026-05-09 03:48 33.94002 -118.39592 92 ft 26 kts 83°
2026-05-09 03:48 33.94072 -118.39485 92 ft 15 kts 20°
2026-05-09 03:49 33.94078 -118.39457 92 ft 0 kts 182°